PISAT (41784 NORAD) Tracking and Keplerian Element Data

This shows tracking and keplerian element data for the satellite.

Feedback or suggestion? Click here.




ElementValue
Catalog41784
NamePISAT
Epoch Orbit44658
Epoch Day34.63950739
Epoch Year2025
RAAN52.1344
Inclination97.8227
Eccentricity0.0029812
Argument of Perigee359.9608
Mean Anonmoly0.159
Mean Motion14.67365078
Decay Rate2.754E-05
L11 41784U 16059B 25034.63950739 .00002754 00000+0 49239-3 0 9998
L22 41784 97.8227 52.1344 0029812 359.9608 0.1590 14.67365078446581



Live tracking and technical data element details for PISAT (NORAD 41784). PISAT can be tracked NOW for your location showing map with azimuth and elevation plus other details from your city location.







IsCatalogInMostPopularTable: catalog: 41784, numindb: 727
Update: records affected: 1



GetName: 41784 PISAT

Hit Count: updated at: Sat, 06 Dec 2025 18:39:07 GMT